Regional Weather Roundup
Issued by NWS

Home | Current Version | Previous Version | Graphics & Text | Print | Product List | Glossary On
Versions: 1 2 3 4 5 6 7 8 9 10 11 12 13 14 15 16 17 18 19 20 21 22 23 24 25 26 27 28 29 30 31 32 33 34 35 36 37 38 39 40 41 42 43 44 45 46 47 48 49 50
658
ASUS43 KMPX 061610
RWRMN
WEATHER ROUNDUP FOR MINNESOTA
NATIONAL WEATHER SERVICE TWIN CITIES/CHANHASSEN MN
1000 AM CST TUE DEC 06 2016


NOTE: "FAIR" INDICATES FEW OR NO CLOUDS BELOW 12,000 FEET WITH NO
SIGNIFICANT WEATHER AND/OR OBSTRUCTIONS TO VISIBILITY. N/A MEANS
CURRENT SKY AND/OR WEATHER CONDITIONS ARE NOT AVAILABLE.

MNZ060>063-068>070-061700-
   Twin Cities Metro

CITY           SKY/WX    TMP DP  RH WIND       PRES   REMARKS
TWIN CITIES    FLURRIES  21  11  65 SW18G26   29.74S WCI   6
ST PAUL        CLOUDY    22  13  68 SW21G32   29.75S WCI   6
CRYSTAL        CLOUDY    21   9  59 SW18G29   29.71S WCI   6
BLAINE         FLURRIES  23  16  74 SW18G28   29.70S WCI   9
LAKEVILLE      FLURRIES  19  14  79 SW10G26   29.75S WCI   8
EDEN PRAIRIE   FLURRIES  21  12  68 SW21G30   29.73S WCI   5
SOUTH ST PAUL  CLOUDY    23  13  65 SW14G24   29.74S WCI  10
LAKE ELMO      CLOUDY    23  18  80 SW18G25   29.73R WCI   9
$$
MNZ001>005-007-008-013>017-022>024-027-028-061700-
   Northwest Minnesota

CITY           SKY/WX    TMP DP  RH WIND       PRES   REMARKS
BEMIDJI        CLOUDY    19  14  82 S20       29.37F WCI   2
HALLOCK        LGT SNOW  25  21  86 NE9       29.34R VSB 1   WCI  15
ROSEAU         CLOUDY    25  19  80 SE12G17   29.36S WCI  14
WARROAD        CLOUDY    25  19  80 S12G20    29.37S WCI  14
THIEF RVR FALL LGT SNOW  22  20  92 SE21      29.27S VSB 1   WCI   6
CROOKSTON      LGT SNOW  28  28 100 NW21      29.25F VSB 1   WCI  15
FOSSTON        LGT SNOW  19  18  93 SE16      29.29F VSB 3/4 WCI   5
DETROIT LAKES  LGT SNOW  25  23  93 W16G24    29.39R VSB 1   WCI  12
MOORHEAD       LGT RAIN  21  19  93 W31G40    29.43R VSB 3/4 WCI   3
PARK RAPIDS    LGT SNOW  19  13  77 S21G29    29.40F VSB 1   WCI   3
$$
MNZ006-009>011-018-025>026-061700-
   North Central Minnesota

CITY           SKY/WX    TMP DP  RH WIND       PRES   REMARKS
BAUDETTE       CLOUDY    23  17  78 S13       29.40S WCI  11
FLAG ISLAND    CLOUDY    27  21  80 SE20      29.38S WCI  13
INTL FALLS     CLOUDY    24  18  77 VRB5      29.44S WCI  18
WASKISH        CLOUDY    21  18  86 SE15G21   29.40S WCI   8
BIG FORK       FLURRIES  23  18  80 S10G18    29.45S WCI  12
LONGVILLE      LGT SNOW  19  14  79 S15G22    29.47F WCI   5
GRAND RAPIDS   LGT SNOW  19  16  86 S18       29.49F WCI   4
CRANE LAKE     CLOUDY    27  21  80 S10G23    29.50R WCI  17
ORR            CLOUDY    21  16  79 S10G17    29.45R WCI  10
COOK           CLOUDY    23  18  80 S15       29.48F WCI  10
$$
MNZ012-019>021-037-061700-
   Northeast Minnesota

CITY           SKY/WX    TMP DP  RH WIND       PRES   REMARKS
DULUTH         FLURRIES  24  16  71 SW21G29   29.53F WCI   9
ELY            CLOUDY    28  25  86 S12G21    29.46S WCI  18
HIBBING        CLOUDY    21  15  78 VRB7      29.49F WCI  12
EVELETH        MIX PCPN  24  17  74 SW20      29.51F WCI   9
DULUTH HARBOR  CLOUDY    28  21  74 SW23G35   29.59S WCI  14
TWO HARBORS    PTSUNNY   28  21  74 SW18G24   29.54R WCI  16
SILVER BAY     CLOUDY    30  27  86 SW14      29.52S WCI  20
GRAND MARAIS     N/A     35  34  96 SW15      29.57S WCI  25
G MARAIS ARPRT SNOW      28  27  93 S9        29.51S VSB 1/2 WCI  20
$$
MNZ029>031-032-039>041-046>048-054>057-064-061700-
   West Central Minnesota

CITY           SKY/WX    TMP DP  RH WIND       PRES   REMARKS
FERGUS FALLS   LGT SNOW  21  18  86 W25G33    29.55R WCI   4
WHEATON        LGT SNOW  21  19  93 W21G29    29.62R WCI   6
MORRIS         CLOUDY    21  16  79 W25G39    29.60R HAZE    WCI   4
ALEXANDRIA     LGT SNOW  20  16  84 SW25G31   29.54S VSB 3/4 WCI   2
ELBOW LAKE     LGT SNOW  20  19  93 W28G41    29.56R VSB 3/4 WCI   2
WADENA         LGT SNOW  19  16  86 SW16G25   29.44F WCI   5
GLENWOOD       LGT SNOW  19  16  86 SW24G33   29.58R WCI   2
APPLETON       CLOUDY    19  12  73 W26G37    29.66R WCI   1
BENSON         FLURRIES  19  12  73 W24G33    29.64S WCI   2
ORTONVILLE     CLOUDY    19  10  68 W23G35    29.65R WCI   2
MADISON        CLOUDY    21  12  68 W30G44    29.70S WCI   3
WILLMAR        LGT SNOW  19  16  86 W25G35    29.68S WCI   2
$$
MNZ033>034-036-042>043-049>051-058-059-061700-
   Central Minnesota

CITY           SKY/WX    TMP DP  RH WIND       PRES   REMARKS
ST CLOUD       FLURRIES  19  12  74 SW20      29.65S WCI   3
PAYNESVILLE    LGT SNOW  19  13  80 SW18G26   29.65S WCI   3
AITKIN         LGT SNOW  21  12  68 S14G24    29.52F WCI   8
PINE RIVER     CLOUDY    18  14  86 S17G23    29.52F WCI   2
BRAINERD       LGT SNOW  19  13  77 S22G30    29.53F WCI   2
STAPLES        LGT SNOW  18  16  93 S17G23    29.49F WCI   2
LONG PRAIRIE   LGT SNOW  19  14  79 S18G29    29.56S WCI   4
LITTLE FALLS   CLOUDY    19  12  73 SW20G26   29.59S WCI   4
LITCHFIELD     FLURRIES  19  12  73 SW13G26   29.69S WCI   7
BUFFALO        FLURRIES  20  12  71 SW15G26   29.71F WCI   6
MAPLE LAKE     FLURRIES  21  14  74 SW13G24   29.70R WCI   9
$$
MNZ037-044-045-052-053-061700-
   East Central Minnesota

CITY           SKY/WX    TMP DP  RH WIND       PRES   REMARKS
PRINCETON      LGT SNOW  21  14  73 SW15G24   29.65F WCI   8
MORA           FLURRIES  19  12  73 SW16G22   29.65S WCI   5
CAMBRIDGE      FLURRIES  23  12  63 SW17G26   29.65S WCI   9
RUSH CITY      CLOUDY    21  14  73 SW16G22   29.66S WCI   7
MOOSE LAKE     LGT SNOW  23  18  80 SW15G24   29.57S WCI  10
HINCKLEY       FLURRIES  23  18  80 SW22G29   29.63S WCI   8
CLOQUET        FLURRIES  23  16  74 S16G23    29.54F WCI  10
MCGREGOR       CLOUDY    21  18  86 SW14G21   29.55S WCI   8
$$
MNZ071>073-080-081-089-090-097-098-061700-
   Southwest Minnesota

CITY           SKY/WX    TMP DP  RH WIND       PRES   REMARKS
MONTEVIDEO     LGT SNOW  19  12  73 NW22G30   29.72R WCI   3
GRANITE FALLS  LGT SNOW  21  14  75 W31G37    29.75S WCI   2
CANBY          CLOUDY    19  11  71 W29G43    29.73S WCI   0
MARSHALL       CLOUDY    18  10  71 W32G48    29.73S WCI  -2
REDWOOD FALLS  CLOUDY    20   9  62 W29G38    29.75S WCI   1
OLIVIA         PTSUNNY   21  14  73 W28G36    29.71S HAZE    WCI   3
PIPESTONE      PTSUNNY   18   9  68 W30G39    29.79R WCI  -2
WINDOM         CLOUDY    19  10  68 W29G37    29.79R WCI   1
WORTHINGTON    FLURRIES  17  11  77 W28G43    29.81R WCI  -2
JACKSON        PTSUNNY   18  10  73 W26G40    29.80R WCI  -1
TRACY          PTSUNNY   19  12  72 W17G36    29.76F WCI   4
SLAYTON        PTSUNNY   15   9  75 W32G40    29.78R WCI  -6
$$
MNZ065>067-074>077-082>085-091>093-061700-
   South Central Minnesota

CITY           SKY/WX    TMP DP  RH WIND       PRES   REMARKS
MANKATO        FLURRIES  19  12  73 W28       29.78S WCI   1
NEW ULM        CLOUDY    19  10  68 W25       29.78S WCI   2
ST JAMES       PTSUNNY   19  10  68 W25G33    29.81S WCI   2
FAIRMONT       MOSUNNY   20  11  68 W28G35    29.82R WCI   2
GLENCOE        CLOUDY    21  15  76 SW18G28   29.74R WCI   6
FARIBAULT      FLURRIES  21  12  68 SW14G24   29.78S WCI   8
OWATONNA       CLOUDY    21  12  68 SW21      29.78S WCI   6
WASECA         CLOUDY    21  14  73 SW18G29   29.81R WCI   6
ALBERT LEA     PTSUNNY   25  16  68 W17G26    29.80R WCI  11
$$
MNZ078>079-086>088-094>096-061700-
   Southeast Minnesota

CITY           SKY/WX    TMP DP  RH WIND       PRES   REMARKS
ROCHESTER      PTSUNNY   22  16  78 W18       29.76R WCI   7
RED WING       PTSUNNY   25  16  68 W17G23    29.75R WCI  11
STANTON        CLOUDY    23  14  69 SW17G25   29.76R WCI   9
DODGE CENTER   CLOUDY    19  16  86 W21G26    29.77R WCI   3
WINONA         PTSUNNY   30  23  74 W9        29.79R WCI  22
AUSTIN         MOSUNNY   21  14  73 W14G24    29.79S WCI   8
PRESTON        MOSUNNY   22  16  78 W15G25    29.78R WCI   8
$$
ABBREVIATIONS USED IN REMARKS
   TC - TEMPERATURES IN CELSIUS
  WCI - WIND CHILL INDEX
   HX - HEAT INDEX
  VSB - VISIBILITY
$$




USA.gov is the U.S. government's official web portal to all federal, state and local government web resources and services.